Weather in Ubinskiy

Russia / Kemerovo Oblast     54°28′44″N   86°18′30″E
temp.,
°C
wind,
m/s
gust,
m/s
humid.,
%
clouds,
%
prec.,
mm/h
press.,
hPa
HPBL,
m
18 may, tue
tue1801:00+12ssw3379100 0.0 101228
04:00+12s378457 0.0 1009138
07:00+15sw51281100 0.9 1006477
10:00+19wsw91666100 1.5 1003880
13:00+24wnw10154572 1.5 10022375
16:00+20nnw711540 0.1 10051195
19:00+18nnw696427 0.1 1006887
22:00+12n348799 0.0 1007132
19 may, wed
wed1901:00+11nne3487100 0.1 1006188
04:00+10ne2289100 0.4 1004148
07:00+8n5994100 3.3 1004391
10:00+8n7988100 1.9 1004620
13:00+10nne81162100 2.6 10051203
16:00+14n793992 0.0 10062018
19:00+12n774581 0.0 10082011
22:00+7n41053100 0.0 1010433
20 may, thu
thu2001:00+5n6125421 0.0 1010427
04:00+4n51158100 0.0 1010506
07:00+3n5105839 0.0 1012443
10:00+7n68395 0.0 10122069
13:00+8n6635100 0.0 10122788
16:00+8nnw673698 0.0 10132276
19:00+7n67345 0.1 10152155
22:00+4nnw5106184 0.0 1017414
21 may, fri
fri2101:00+3nw487393 0.0 1018468
04:00+2nw3597100 0.0 1020368
07:00+3nw458234 0.0 1022503
10:00+7nw4560100 0.0 10231018
13:00+12nnw674198 0.1 10232368
16:00+13nw6635100 0.0 10232309
19:00+13nw4642100 0.0 10251760
22:00+8wnw3759100 0.0 1026129
22 may, sat
sat2201:00+6sw3662100 0.0 1027124
04:00+6sw51356100 0.0 1026315
07:00+7wsw61161100 0.0 1026881
10:00+6sw81486100 2.6 10251138
13:00+6sw81588100 10.4 10231058
16:00+7sw81482100 0.3 1023881
19:00+8ssw61385100 1.9 1022517
22:00+10ssw5137890 0.3 1022422